Flag for Germany Weather past 2 weeks in Lörrach, Baden-Württemberg, Germany

Now
86 °F

Passing clouds.


Feels Like: 87 °F
Forecast: 67 / 92 °F
Wind: 3 mph from Northwest

Location: Bale-Mulhouse

Current Time: Aug 29, 2015 at 2:58:06 PM

Latest Report: Aug 29, 2015 at 2:00 PM


Visibility: N/A

Pressure: 30.15 "Hg

Humidity: 49%

Dew point: 64 °F

Location of LörrachLocation

Historic Weather in Lörrach — Graph

°F

Lörrach temperature yesterday

Maximum temperature yesterday: 86 °F (at 5:00 PM)
Minimum temperature yesterday: 66 °F (at 7:00 AM)
Average temperature yesterday: 75 °F

Past Weeks' High & Low Weather Summary

 TemperatureHumidityPressure
High90 °F (Aug 27, 3:00 PM)100% (Aug 15, 1:00 AM)30.24 "Hg (Aug 15, 1:00 AM)
Low48 °F (Aug 20, 6:30 AM)26% (Aug 27, 3:00 PM)29.71 "Hg (Aug 24, 5:00 AM)
Average65 °F74%30.01 "Hg
* Reported Aug 14 1:00 PM — Aug 29 1:30 PM, Lörrach, Weather by CustomWeather, © 2015

Note: Actual official high and low records may vary slightly from our data, if they occured in-between our weather recording intervals... More about our weather records

Advertising

Lörrach weather history for previous 24 hours

 ConditionsComfort  
Time TempWeatherWind HumidityBarometerVisibility
1:30 PM
Sat, Aug 29
84 °FSunny.3 mph51%30.15 "Hg10 mi
1:00 PM82 °FSunny.2 mph58%30.18 "Hg10 mi
12:00 PM81 °FSunny.3 mph62%30.18 "Hg10 mi
11:30 AM77 °FSunny.1 mph69%30.21 "Hg10 mi
11:00 AM75 °FPassing clouds.3 mph69%30.21 "HgN/A
10:00 AM72 °FScattered clouds.2 mph83%30.21 "HgN/A
9:30 AM70 °FPassing clouds.2 mph83%30.21 "HgN/A
9:00 AM66 °FPartly sunny.1 mph94%30.18 "Hg5 mi
8:00 AM64 °FFog.3 mph100%30.18 "Hg2 mi
7:30 AM64 °FFog.1 mph100%30.18 "Hg1 mi
7:00 AM64 °FFog.1 mph94%30.18 "Hg1 mi
6:30 AM64 °FFog.1 mph94%30.18 "Hg1 mi
6:00 AM64 °FFog.No wind94%30.18 "Hg1 mi
5:00 AM64 °FPassing clouds.No wind94%30.18 "HgN/A
4:30 AM63 °FPassing clouds.2 mph100%30.18 "HgN/A
4:00 AM63 °FPassing clouds.3 mph100%30.18 "HgN/A
3:30 AM63 °FPassing clouds.3 mph100%30.18 "HgN/A
3:00 AM63 °FPassing clouds.3 mph100%30.18 "HgN/A
2:30 AM64 °FClear.6 mph94%30.18 "Hg10 mi
2:00 AM64 °FClear.7 mph94%30.18 "Hg10 mi
1:30 AM64 °FClear.6 mph94%30.18 "Hg10 mi
1:00 AM66 °FClear.6 mph88%30.15 "Hg10 mi
12:30 AM66 °FClear.7 mph94%30.15 "Hg10 mi
12:00 AM68 °FClear.8 mph88%30.15 "Hg10 mi
11:30 PM
Fri, Aug 28
68 °FClear.12 mph94%30.15 "Hg10 mi
11:00 PM70 °FClear.10 mph83%30.15 "Hg10 mi
10:30 PM70 °FClear.6 mph83%30.12 "Hg10 mi
10:00 PM72 °FClear.3 mph78%30.12 "Hg10 mi
9:30 PM72 °FClear.3 mph78%30.12 "Hg10 mi
9:00 PM75 °FSunny.5 mph69%30.09 "Hg10 mi
8:30 PM77 °FSunny.5 mph65%30.09 "Hg10 mi
8:00 PM81 °FSunny.6 mph58%30.09 "Hg10 mi
7:30 PM81 °FSunny.6 mph58%30.09 "Hg10 mi
7:00 PM84 °FPassing clouds.3 mph51%30.09 "HgN/A
6:30 PM86 °FPassing clouds.5 mph46%30.09 "HgN/A
6:00 PM86 °FPassing clouds.5 mph46%30.09 "HgN/A
5:30 PM84 °FPassing clouds.5 mph48%30.09 "HgN/A
5:00 PM86 °FPassing clouds.5 mph43%30.09 "HgN/A
4:30 PM84 °FPassing clouds.6 mph45%30.09 "HgN/A
4:00 PM84 °FScattered clouds.3 mph48%30.09 "HgN/A
3:30 PM84 °FScattered clouds.7 mph48%30.09 "HgN/A
3:00 PM82 °FPassing clouds.5 mph51%30.09 "HgN/A
2:30 PM81 °FPassing clouds.7 mph54%30.09 "HgN/A
2:00 PM82 °FPassing clouds.10 mph48%30.09 "HgN/A
Weather by CustomWeather, © 2015

See weather overviewHow to use our weather pages